EXPRESS-AM7

Last updated on Tue Sep 22 2026 00:03:13 GMT+0000 (Coordinated Universal Time)

1 40505U 15012A 26264.56828437 .00000000 00000+0 00000+0 0 9994 2 40505 0.0236 168.5946 0003230 14.3313 62.0929 1.00269594 41974
UTC large
Height (km)
Speed (km/s)
/
Latitude / Longitude
Inclination (degrees)
Orbital Period (minutes)
Azimuth
Elevation
Range (km)
Doppler Factor

Next 0 passes for location: London (51.5072 / 0.1276)

No passes found over London.
EXPRESS-AM7